Regional Weather Roundup
Issued by NWS

Home | Current Version | Previous Version | Text Only | Print | Product List | Glossary On
Versions: 1 2 3 4 5 6 7 8 9 10 11 12 13 14 15 16 17 18 19 20 21 22 23 24 25 26 27 28 29 30 31 32 33 34 35 36 37 38 39 40 41 42 43 44 45 46 47 48 49 50
000
ASUS42 KFFC 021710
RWRGA
WEATHER ROUNDUP FOR GEORGIA
NATIONAL WEATHER SERVICE PEACHTREE CITY GA
100 PM EDT SUN AUG 02 2015

NOTE: "FAIR" INDICATES FEW OR NO CLOUDS BELOW 12,000 FEET WITH NO
SIGNIFICANT WEATHER AND/OR OBSTRUCTIONS TO VISIBILITY.

* = USE WITH CAUTION. THE STATIONS MARKED WITH AN ASTERISK MAY NOT
REPORT WEATHER SUCH AS PRECIPITATION, FOG, OR THUNDER AND ARE NOT
QUALITY CONTROLLED BY NWS.

THE REMARK "TC" DENOTES TEMPERATURE READING IN DEGREES CELSIUS.

GAZ001>058-021800-
NORTH GEORGIA

CITY           SKY/WX    TMP DP  RH WIND       PRES   REMARKS
ATLANTA        MOSUNNY   87  63  44 E7        29.96F
ATHENS         SUNNY     91  62  37 E8        29.96F HX  91
CHAMBLEE       SUNNY     90  62  39 VRB6      29.96F HX  90
PEACHTREE CITY SUNNY     90  66  45 E7        29.96F HX  92
ROME           SUNNY     89  63  41 VRB6      29.95F HX  90
WEST ATLANTA   SUNNY     89  62  40 NE10      29.95F
GAINESVILLE    SUNNY     87  62  43 VRB7      30.01F
CARTERSVILLE   SUNNY     89  63  41 VRB6      29.97F HX  90


CITY           SKY/WX    TMP DP  RH WIND       PRES   REMARKS
DALTON*        SUNNY     86  64  48 NW3       29.97F
LAWRENCEVILLE* SUNNY     90  61  37 E9        29.96F
MARIETTA       MOSUNNY   89  62  39 VRB5      29.97F
KENNESAW*      MOSUNNY   90  64  43 E9G16     29.98F HX  91
BLAIRSVILLE*     N/A     84  13   7 SE7       30.03F
$$

GAZ059>098-102>109-021800-
CENTRAL GEORGIA

CITY           SKY/WX    TMP DP  RH WIND       PRES   REMARKS
AUGUSTA-BUSH   MOSUNNY   90  73  57 SE9       29.92F HX  98
AUGUSTA-DANIEL MOSUNNY   88  71  57 E7        29.94F HX  94
COLUMBUS       SUNNY     91  65  41 E12G21    29.91F HX  93
MACON          MOSUNNY   88  73  62 E7        29.92F HX  96
ROBINS AFB     MOSUNNY   85  74  69 VRB6      29.92F HX  92


CITY           SKY/WX    TMP DP  RH WIND       PRES   REMARKS
LAGRANGE*      SUNNY     93  72  49 NE6       29.94F HX 101
SYLVANIA*      MOSUNNY   88  78  73 SE3       29.93F HX 102
MILLEDGEVILLE* MOSUNNY   90  72  55 SE3       29.93F HX  96
$$

GAZ099>101-110>166-021800-
SOUTH GEORGIA

CITY           SKY/WX    TMP DP  RH WIND       PRES   REMARKS
SAVANNAH       CLOUDY    80  75  84 NE6       29.93F
VALDOSTA       LGT RAIN  79  77  94 E6        29.89S
ALMA           CLOUDY    83  73  72 E5        29.91F
ST SIMONS      PTSUNNY   81  75  82 VRB6      29.92S
FT STEWART     PTSUNNY   91  72  52 SE7       29.83F HX  98
ALBANY         CLOUDY    84  74  71 E8        29.92S HX  91
HUNTER AFB     PTSUNNY   81  79  94 E3        29.90F
MOODY AFB      CLOUDY    82  73  74 E5        29.88F
BRUNSWICK      CLOUDY    84  73  70 SE12      29.92F HX  91


CITY           SKY/WX    TMP DP  RH WIND       PRES   REMARKS
BAINBRIDGE*    MOSUNNY   88  77  70 N9        29.88F HX 100
MOULTRIE*      CLOUDY    82  73  74 NE7       29.90S
VIDALIA*       PTSUNNY   82  73  74 E5        29.93F
WAYCROSS*      CLOUDY    84  78  81 SE5       29.91S HX  95
DOUGLAS*       MOSUNNY   86  73  66 E6        29.93S HX  93
$$


USA.gov is the U.S. government's official web portal to all federal, state and local government web resources and services.